{"data":{"norad_id":68533,"epoch":"2026-05-25T03:05:34.437120Z","epoch_age_seconds":78007,"freshness":"FRESH","line1":"1 68533U 26068AB  26145.12887080  .00031384  00000+0  93561-3 0  9994","line2":"2 68533  53.1588 133.1057 0002731 136.4294 223.6925 15.34414764  8667","mean_motion":15.34414764,"eccentricity":0.0002731,"inclination_deg":53.1588,"raan_deg":133.1057,"arg_perigee_deg":136.4294,"mean_anomaly_deg":223.6925,"bstar":0.00093561,"rev_number":866,"period_min":93.846855086699,"perigee_km":460.79113735399,"apogee_km":464.52758032519,"semimajor_km":6840.7963588396,"source":"CELESTRAK","updated_at":"2026-05-25T13:38:21.958271Z"}}